Location: G�kdere
(37.0328°N, 30.9000°E)
Time: 05:51:48
(UTC+00:00)

SME Rocket - Pass Details

Date: 03 March 2021
Orbit: 550 x 2652 km, 99.9° (Epoch: 20 April)

Event Time Altitude Azimuth Distance (km) Brightness Sun altitude
Rises 17:12:32 0° 17° (NNE) 4,621 7.4 -16.8°
Reaches altitude 10° 17:15:59 10° 22° (NNE) 3,310 6.6 -17.4°
Maximum altitude 17:22:58 52° 98° (E) 1,145 4.0 -18.8°
Drops below altitude 10° 17:27:38 10° 174° (S) 2,231 5.8 -19.7°
Sets 17:29:35 0° 180° (S) 3,004 6.5 -20.1°
